Location: Olsztyn
(53.7767°N, 20.4765°E)
Time: 21:46:48
(UTC+01:00)

Envisat - Pass Details

Date: 27 November 2022
Orbit: 763 x 765 km, 98.2° (Epoch: 07 February)

Event Time Altitude Azimuth Distance (km) Brightness Sun altitude
Rises 04:01:12 0° 15° (NNE) 3,248 6.5 -29.3°
Reaches altitude 10° 04:03:31 10° 17° (NNE) 2,318 5.7 -28.9°
Enters shadow 04:08:27 76° 77° (ENE) 796 3.0 -28.2°
